Wind_Speed
8 7 7 7 8 8 8 8 8 8 9 10 10 9 9 9 8 8 8 8 8 8 8 8 8 9 9 8 8 8 7 7 8 8 8 8 9 8 9 9 8 8 9
9 8 7 8 9 9 8 8 8 9 9 10 10 10 10 10 10 9 9 9 9 9 8 9 9 9 9 9 9 8 8 8 8 9 9 9 9 9 9 9 9 9 9
10 9 9 9 9 9 8 9 9 10 10 11 11 11 11 11 11 11 10 10 10 10 10 9 10 10 10 10 10 9 9 9 9 8 8 9 9 9 10 10 10 9 9
11 11 10 10 10 9 9 9 9 10 11 11 11 12 12 12 12 11 11 11 11 10 11 11 11 11 11 11 11 11 10 10 9 10 9 9 9 9 10 10 11 11 10
12 12 10 10 10 9 9 9 10 10 11 11 11 12 13 12 12 12 12 12 11 11 11 11 11 11 12 12 12 12 11 11 11 11 11 10 10 10 10 11 11 12 11
12 12 11 10 10 10 10 11 11 11 11 12 12 12 13 12 12 12 11 12 12 12 12 12 12 12 12 12 12 12 12 12 12 11 12 12 12 11 11 12 12 13 13
13 12 12 11 11 11 11 12 12 12 12 12 12 12 13 12 13 12 12 12 13 13 13 13 13 13 13 13 13 13 13 13 13 13 13 13 13 13 13 13 13 13 13
13 12 11 12 12 12 13 13 14 13 13 13 13 14 14 14 14 13 13 13 13 14 14 14 14 14 14 14 14 14 14 15 14 14 15 14 14 15 14 14 14 14 14
13 12 11 12 13 13 13 14 14 14 15 15 14 15 16 16 15 14 14 14 14 14 14 14 15 15 15 15 15 15 15 16 15 16 15 16 15 15 15 15 15 15 15
13 12 11 12 13 13 14 15 15 14 15 15 15 16 16 17 16 15 15 15 15 15 16 16 16 16 16 16 16 16 17 17 17 17 17 17 16 15 15 15 15 16 16
13 12 12 13 14 14 14 15 15 15 15 15 15 16 16 15 15 15 15 16 16 17 17 17 18 17 17 17 17 16 16 17 17 17 18 18 17 16 16 16 16 16 16
13 12 13 14 15 15 16 16 16 16 16 16 16 16 15 15 15 16 16 16 17 17 17 18 18 18 18 18 18 18 17 17 17 18 18 19 18 17 17 17 17 17 17
14 14 14 15 16 16 16 16 17 17 15 15 15 15 15 15 15 16 16 16 16 17 17 18 18 19 19 19 19 19 18 18 18 19 19 19 20 19 18 17 17 17 18
15 16 15 17 17 17 17 17 18 17 16 15 16 16 16 16 16 16 16 16 15 16 16 16 18 18 19 20 20 20 19 19 20 19 20 20 20 20 19 18 18 18 18
16 16 16 17 17 17 18 18 17 17 16 16 16 16 16 16 16 16 16 16 16 16 17 17 17 18 18 19 20 20 20 20 20 20 20 20 21 21 21 20 20 19 19
17 17 17 16 17 18 19 18 17 16 16 15 15 16 16 15 15 16 16 17 17 17 17 17 18 18 18 19 19 19 20 21 21 21 21 21 21 22 22 22 22 21 20
17 17 17 18 18 18 18 18 18 17 17 16 16 16 16 15 15 15 15 16 16 17 17 18 18 18 19 19 20 20 20 20 21 21 22 22 22 22 23 23 23 22 22
17 18 19 19 19 19 19 18 18 18 18 17 16 17 17 16 16 16 16 16 17 17 17 18 18 19 19 20 21 21 21 21 21 22 22 21 22 22 23 23 24 23 23
19 19 20 20 20 20 19 18 18 18 18 18 17 18 18 18 18 18 18 18 18 18 18 18 18 19 19 20 20 20 21 21 21 22 23 23 23 23 23 24 24 24 24
21 21 20 21 21 21 20 20 20 19 19 18 18 19 19 19 19 19 20 20 19 19 19 19 19 19 19 20 21 20 21 21 22 22 23 23 23 23 23 23 24 24 25
22 21 22 22 22 22 21 21 21 20 20 20 21 21 21 21 21 21 21 21 21 20 20 19 19 20 20 20 20 20 21 22 22 22 23 23 23 23 24 24 24 25 25
22 22 22 23 23 22 21 22 21 22 22 22 22 22 22 23 23 23 22 22 22 22 21 21 21 20 20 20 20 20 20 21 22 22 23 24 24 24 24 24 24 25 25
22 22 23 23 23 22 22 22 22 23 23 23 23 23 24 24 23 23 23 23 23 23 22 21 22 21 21 21 21 21 20 20 20 22 23 24 24 24 24 24 24 25 26
23 22 23 23 22 22 23 23 23 22 23 23 23 23 24 24 23 23 23 23 23 24 23 23 23 22 22 22 22 22 22 22 22 22 23 24 24 24 24 25 26 26 26
24 23 24 23 23 23 23 24 24 24 23 22 22 23 23 24 23 23 23 24 24 25 25 24 24 24 24 23 23 23 23 23 23 23 23 24 25 25 25 25 25 26 27
23 24 24 23 23 22 23 24 24 24 23 22 22 23 23 23 23 23 23 24 25 25 24 25 25 25 25 25 24 24 24 24 24 24 24 24 24 26 25 25 25 26 26
Wind_Direction
339 348 345 337 333 330 324 318 312 310 308 308 306 305 301 296 293 292 290 286 283 281 281 280 277 273 269 263 260 255 250 243 242 240 234 230 229 230 228 225 225 223 223
333 336 333 328 326 323 318 314 308 305 302 300 298 298 297 293 291 290 290 285 282 281 278 277 275 274 270 265 262 254 252 248 243 238 236 232 232 230 230 231 234 231 235
329 327 322 319 320 320 316 311 306 301 300 296 294 292 292 290 290 289 285 284 282 279 277 274 274 272 269 268 264 259 256 253 245 238 240 239 239 235 236 235 234 235 236
325 323 319 319 318 318 315 310 305 301 300 297 292 289 289 286 287 287 284 281 279 277 276 274 273 272 270 269 266 261 257 254 249 243 244 243 244 245 243 241 237 235 238
322 319 312 312 312 311 309 307 305 302 300 297 292 290 289 285 286 288 282 277 275 274 274 273 273 273 272 270 267 263 259 258 251 248 248 249 248 248 247 248 242 238 242
315 314 311 309 307 304 302 301 301 302 300 295 293 290 288 282 282 282 279 275 273 272 271 271 272 272 270 268 267 266 260 259 253 252 251 251 251 250 251 251 247 244 246
313 310 310 309 307 300 298 301 300 300 298 295 292 290 287 283 279 276 277 275 272 270 268 270 271 271 270 267 267 266 263 259 255 254 256 252 249 248 251 252 250 248 247
312 308 308 306 305 300 298 297 297 296 294 293 291 289 285 281 277 274 271 271 270 269 268 269 270 270 270 268 266 264 262 260 256 254 256 256 252 251 250 249 250 248 247
314 308 307 304 303 301 301 300 298 295 294 290 287 285 282 278 274 276 271 269 269 268 267 268 270 271 269 268 267 263 262 263 259 256 256 256 255 253 250 250 250 249 246
313 309 308 306 302 301 302 301 301 298 294 291 286 285 282 276 272 273 272 270 268 268 268 269 270 270 269 267 266 265 263 263 262 258 256 257 256 253 252 252 250 248 246
312 309 309 306 304 305 306 304 299 297 294 290 285 286 284 277 273 273 271 271 270 270 269 269 270 269 269 266 264 263 264 264 260 257 257 258 257 253 252 251 252 249 246
311 307 306 305 305 306 306 304 300 297 292 288 285 286 284 280 276 273 272 271 270 270 268 267 268 268 267 264 263 262 263 263 260 256 256 256 255 253 251 251 253 252 249
311 308 308 305 303 304 305 306 305 303 295 290 288 290 287 281 279 276 274 272 271 270 267 266 267 267 266 267 265 263 261 259 259 256 256 255 255 254 253 251 252 252 251
312 310 307 304 305 306 306 306 305 303 297 294 291 290 288 284 281 278 277 273 273 270 269 266 266 266 266 266 266 264 263 259 258 259 257 255 255 254 254 254 254 252 250
314 311 308 306 306 306 306 306 303 300 298 295 292 289 287 285 281 278 276 273 272 271 269 269 268 270 268 267 267 266 264 262 259 258 257 253 253 254 255 254 252 252 251
313 311 309 307 305 303 304 304 305 302 300 296 292 289 287 286 283 280 276 273 273 273 271 270 269 271 270 270 272 269 264 261 259 258 256 253 252 253 254 252 252 251 251
313 311 308 305 304 304 303 302 302 302 300 296 292 291 287 287 286 284 279 274 273 272 271 269 269 271 271 270 271 269 265 261 257 257 257 254 252 252 253 252 252 252 252
314 313 310 306 304 305 305 305 304 302 300 296 292 290 286 285 284 282 280 277 275 272 270 270 270 273 274 272 271 269 266 262 257 256 256 254 253 252 252 252 252 252 252
317 316 312 309 307 306 305 303 302 300 298 293 292 290 285 284 282 280 278 277 277 277 274 273 273 275 275 274 272 268 265 262 259 255 254 254 252 253 253 252 253 252 251
318 317 314 311 309 307 304 303 301 298 296 292 292 291 288 285 283 279 277 277 276 277 277 275 274 275 276 274 272 269 265 262 260 259 255 254 252 254 254 254 253 253 251
317 315 315 312 310 306 303 302 300 297 295 292 291 290 289 287 284 281 276 275 274 273 274 274 274 274 276 275 272 270 266 264 262 261 258 254 254 255 255 255 253 253 252
318 316 315 313 312 310 306 303 300 297 295 291 290 288 287 286 284 281 276 274 273 273 274 275 275 272 272 274 272 268 268 266 264 262 260 257 256 255 254 254 252 253 252
315 314 313 312 311 309 307 305 303 299 294 291 288 285 284 284 283 281 278 274 272 272 273 273 273 272 271 273 274 271 269 266 266 264 262 259 257 255 256 255 253 253 252
314 314 314 313 312 309 307 305 303 301 296 291 287 284 283 282 280 280 277 273 272 271 272 271 270 271 270 271 273 272 270 267 266 266 262 259 258 256 255 254 253 253 253
316 316 317 315 312 309 307 306 305 302 298 293 289 286 283 282 280 279 276 273 273 273 271 270 270 270 269 270 272 272 270 269 269 268 265 263 259 256 255 255 254 252 250
316 317 318 316 313 311 308 308 306 303 301 296 292 289 285 282 280 280 278 275 274 272 269 269 270 270 268 268 270 269 269 270 270 269 267 262 259 256 255 255 253 253 251
Height
5902 5901 5900 5900 5899 5898 5898 5897 5896 5895 5894 5893 5893 5892 5891 5890 5889 5889 5888 5888 5887 5887 5887 5886 5885 5885 5885 5884 5884 5884 5884 5885 5885 5885 5885 5885 5886 5886 5887 5888 5888 5889 5889
5901 5900 5899 5899 5898 5897 5896 5895 5895 5894 5893 5892 5891 5890 5890 5889 5888 5887 5887 5886 5886 5886 5885 5885 5884 5884 5883 5883 5883 5883 5883 5884 5884 5884 5884 5884 5884 5885 5885 5886 5887 5888 5888
5900 5898 5898 5897 5896 5896 5895 5894 5893 5892 5891 5890 5889 5889 5888 5887 5886 5885 5885 5884 5884 5884 5884 5883 5883 5882 5882 5881 5881 5881 5881 5882 5882 5883 5882 5883 5883 5884 5884 5885 5885 5886 5887
5898 5897 5896 5895 5895 5894 5893 5892 5891 5890 5890 5889 5888 5887 5886 5885 5884 5884 5883 5883 5882 5882 5882 5882 5881 5881 5880 5880 5880 5879 5880 5880 5881 5881 5881 5882 5882 5882 5883 5883 5884 5884 5885
5896 5895 5894 5893 5893 5892 5891 5890 5889 5888 5887 5886 5885 5885 5884 5883 5882 5881 5881 5880 5880 5880 5880 5879 5879 5879 5878 5878 5878 5878 5878 5878 5879 5879 5880 5880 5881 5881 5881 5881 5882 5883 5883
5894 5893 5892 5891 5890 5890 5889 5888 5887 5886 5885 5884 5883 5882 5881 5880 5880 5879 5878 5878 5878 5878 5878 5877 5877 5877 5876 5876 5876 5876 5876 5876 5877 5877 5877 5878 5878 5879 5879 5880 5880 5881 5881
5892 5891 5890 5889 5888 5887 5887 5886 5884 5883 5882 5881 5880 5879 5878 5878 5877 5876 5876 5875 5875 5875 5875 5875 5874 5874 5874 5873 5873 5873 5873 5874 5875 5875 5875 5876 5876 5876 5877 5878 5878 5879 5879
5890 5889 5888 5887 5885 5884 5884 5883 5882 5880 5879 5877 5876 5875 5875 5874 5874 5873 5873 5872 5872 5872 5872 5872 5872 5871 5871 5871 5871 5871 5871 5871 5872 5873 5872 5873 5873 5873 5874 5875 5875 5876 5876
5888 5887 5886 5884 5883 5882 5881 5880 5878 5877 5875 5874 5873 5872 5871 5871 5870 5870 5869 5869 5869 5869 5869 5869 5868 5868 5868 5868 5868 5868 5868 5868 5869 5869 5869 5870 5870 5871 5871 5872 5872 5873 5873
5885 5884 5883 5882 5880 5879 5878 5876 5875 5873 5871 5870 5869 5868 5867 5867 5867 5866 5866 5866 5866 5865 5865 5865 5865 5865 5865 5865 5865 5865 5865 5865 5866 5866 5866 5867 5867 5868 5868 5868 5869 5870 5870
5883 5882 5880 5879 5878 5876 5875 5873 5871 5869 5868 5866 5865 5864 5864 5863 5863 5862 5862 5862 5862 5862 5862 5861 5861 5861 5861 5861 5861 5861 5861 5862 5862 5862 5863 5863 5864 5864 5865 5865 5866 5866 5867
5880 5879 5878 5876 5874 5873 5871 5870 5867 5866 5864 5862 5861 5860 5860 5859 5858 5858 5858 5857 5857 5857 5857 5857 5857 5857 5856 5856 5857 5857 5857 5858 5858 5858 5859 5859 5860 5860 5861 5861 5862 5863 5864
5877 5876 5874 5873 5871 5869 5868 5866 5863 5862 5860 5859 5857 5856 5855 5855 5854 5853 5853 5853 5853 5852 5852 5852 5852 5852 5852 5852 5852 5852 5853 5854 5854 5854 5855 5855 5856 5856 5856 5857 5858 5859 5860
5874 5872 5870 5869 5867 5865 5863 5862 5860 5858 5856 5855 5853 5852 5851 5850 5849 5849 5848 5848 5848 5848 5848 5848 5848 5847 5847 5847 5847 5847 5848 5849 5849 5850 5850 5851 5851 5852 5852 5853 5854 5855 5855
5871 5869 5867 5865 5863 5861 5859 5858 5856 5854 5852 5851 5849 5848 5847 5846 5845 5844 5844 5844 5844 5844 5844 5843 5843 5843 5843 5842 5842 5842 5843 5843 5844 5845 5845 5846 5846 5847 5848 5849 5849 5850 5851
5867 5865 5863 5862 5860 5858 5856 5853 5852 5850 5848 5846 5845 5844 5843 5842 5841 5840 5840 5840 5839 5839 5839 5839 5839 5838 5838 5838 5837 5837 5838 5838 5838 5839 5840 5841 5842 5842 5843 5844 5844 5845 5846
5863 5861 5860 5858 5856 5853 5851 5849 5847 5845 5844 5842 5841 5839 5838 5837 5837 5836 5835 5835 5835 5834 5834 5834 5834 5833 5833 5832 5832 5832 5832 5832 5833 5833 5834 5835 5836 5837 5837 5838 5839 5840 5841
5860 5857 5855 5853 5851 5849 5847 5845 5843 5841 5839 5838 5836 5835 5834 5833 5832 5831 5831 5830 5830 5829 5829 5829 5829 5828 5827 5827 5826 5826 5826 5826 5827 5827 5828 5829 5830 5830 5831 5832 5833 5834 5835
5856 5854 5852 5849 5847 5845 5842 5840 5839 5837 5835 5833 5832 5830 5829 5828 5827 5826 5826 5825 5825 5824 5824 5823 5823 5822 5822 5821 5820 5820 5820 5820 5820 5821 5822 5823 5824 5824 5825 5826 5827 5828 5829
5852 5850 5848 5845 5843 5840 5838 5836 5834 5832 5830 5828 5827 5825 5823 5822 5821 5820 5820 5819 5819 5819 5818 5818 5817 5817 5816 5815 5814 5814 5814 5814 5814 5815 5816 5817 5818 5818 5819 5820 5821 5822 5823
5848 5845 5843 5841 5838 5835 5833 5831 5829 5827 5825 5823 5821 5819 5817 5816 5815 5814 5814 5813 5813 5813 5812 5812 5811 5811 5810 5809 5809 5809 5808 5808 5808 5809 5809 5810 5811 5812 5813 5814 5815 5816 5817
5844 5842 5839 5836 5833 5831 5828 5826 5823 5821 5818 5816 5814 5812 5811 5809 5808 5807 5807 5806 5806 5806 5806 5805 5805 5804 5804 5803 5803 5802 5803 5803 5803 5803 5803 5804 5805 5806 5807 5807 5809 5810 5811
5841 5838 5835 5831 5829 5826 5823 5820 5817 5814 5811 5809 5807 5806 5804 5802 5801 5800 5799 5799 5799 5799 5799 5798 5798 5798 5798 5797 5796 5796 5796 5797 5797 5797 5797 5798 5798 5799 5800 5801 5802 5803 5804
5837 5834 5830 5827 5823 5820 5817 5814 5811 5808 5805 5802 5800 5798 5797 5795 5794 5793 5792 5791 5791 5791 5791 5791 5791 5791 5791 5790 5790 5789 5790 5790 5791 5791 5791 5791 5791 5792 5793 5794 5795 5796 5797
5832 5829 5825 5821 5818 5815 5812 5808 5805 5802 5799 5796 5794 5792 5790 5789 5787 5786 5785 5784 5784 5784 5784 5784 5784 5784 5783 5783 5783 5782 5782 5782 5783 5784 5784 5784 5785 5785 5786 5787 5788 5789 5790
5827 5823 5820 5816 5813 5809 5806 5803 5799 5795 5792 5790 5787 5785 5784 5782 5780 5779 5778 5777 5776 5776 5776 5776 5776 5776 5776 5775 5775 5775 5775 5775 5775 5775 5776 5776 5776 5777 5778 5779 5780 5781 5782